Location: Unspecified
(0.0000°N, 0.0000°E)
Time: 06:58:53
(UTC+00:00)

Courier 1B Rocket - Pass Details

Date: 17 December 2018
Orbit: 920 x 1202 km, 28.2° (Epoch: 16 June)

Event Time Altitude Azimuth Distance (km) Brightness Sun altitude
Rises 15:35:05 0° 307° (NW) 3,991 8.5 32.0°
Reaches altitude 10° 15:37:53 10° 310° (NW) 3,061 8.0 31.4°
Maximum altitude 15:45:28 64° 30° (NNE) 1,306 5.9 29.7°
Drops below altitude 10° 15:53:13 10° 110° (ESE) 3,127 7.4 28.0°
Sets 15:56:06 0° 113° (ESE) 4,082 7.9 27.3°
